Location: Newark
(49.7697°N, 2.7094°E)
Time: 01:38:33
(UTC+00:00)

Gurwin Techsat 1B - Visible Passes

Search period start: 03 April 2020 00:00
Search period end: 13 April 2020 00:00
Orbit: 812 x 813 km, 98.7° (Epoch: 02 April)

Date Brightness Start Highest point End Pass type
(mag) Time Alt. Az. Time Alt. Az. Time Alt. Az.
03 Apr 9.5 01:21:48 10° NNE 01:26:26 42° E 01:26:26 42° E visible
03 Apr 9.5 03:01:59 10° N 03:06:42 33° WNW 03:07:39 31° W visible
04 Apr 10.1 00:59:14 10° NE 01:03:24 28° E 01:03:24 28° E visible
04 Apr 8.9 02:38:52 10° N 02:43:59 48° WNW 02:44:37 46° W visible
04 Apr 10.8 04:22:22 10° NW 04:22:43 10° NW 04:23:05 10° NW visible
05 Apr 10.6 00:36:57 10° NE 00:40:22 19° E 00:40:22 19° E visible
05 Apr 8.5 02:15:53 10° NNE 02:21:13 72° WNW 02:21:35 69° WSW visible
05 Apr 10.5 03:57:27 10° NNW 04:00:16 15° NW 04:02:47 11° W visible
06 Apr 11.0 00:15:23 10° ENE 00:17:20 12° E 00:17:20 12° E visible
06 Apr 8.5 01:52:59 10° NNE 01:58:21 77° ESE 01:58:32 76° SE visible
06 Apr 10.1 03:33:53 10° N 03:37:44 21° WNW 03:39:44 17° W visible
07 Apr 9.1 01:30:13 10° NNE 01:35:25 51° E 01:35:30 50° ESE visible
07 Apr 9.7 03:10:35 10° N 03:15:07 29° WNW 03:16:43 25° W visible
08 Apr 9.8 01:07:35 10° NNE 01:12:24 33° E 01:12:27 33° E visible
08 Apr 9.2 02:47:26 10° N 02:52:26 42° WNW 02:53:40 36° W visible
09 Apr 10.4 00:45:11 10° NE 00:49:19 22° E 00:49:25 22° E visible
09 Apr 8.7 02:24:24 10° N 02:29:41 62° WNW 02:30:38 53° WSW visible
09 Apr 10.6 04:06:21 10° NNW 04:08:36 13° NW 04:10:52 10° WNW visible
10 Apr 10.8 00:23:14 10° NE 00:26:08 15° E 00:26:23 15° E visible
10 Apr 8.5 02:01:28 10° NNE 02:06:51 88° ESE 02:07:35 67° SSW visible
10 Apr 10.3 03:42:35 10° NNW 03:46:06 18° NW 03:48:48 13° W visible
11 Apr 8.9 01:38:39 10° NNE 01:43:56 59° ESE 01:44:33 55° SE visible
11 Apr 9.9 03:19:12 10° N 03:23:31 26° WNW 03:25:46 19° W visible
12 Apr 9.5 01:15:58 10° NNE 01:20:57 39° E 01:21:30 38° ESE visible
12 Apr 9.4 02:56:01 10° N 03:00:52 37° WNW 03:02:43 28° WSW visible
